Weather in Mamak

Turkey     39°55′01″N   32°55′57″E
temp.,
°C
wind,
m/s
gust,
m/s
humid.,
%
clouds,
%
prec.,
mm/h
press.,
hPa
HPBL,
m
26 february, fri
fri2600:00−2ene11930 0.0 103421
03:00−2ene00920 0.0 103321
06:00−2wnw00920 0.0 103221
09:00+1wnw00789 0.0 103283
12:00+4wsw11600 0.0 1030498
15:00+6w11550 0.0 1027628
18:00+4s01710 0.0 102622
21:00+1ese22840 0.0 102622
27 february, sat
sat2700:000e12890 0.0 102622
03:000e11900 0.0 102522
06:000ese11890 0.0 102422
09:00+3ese11720 0.0 102483
12:00+6sw11570 0.0 1021557
15:00+8wsw11510 0.0 1018703
18:00+6wnw12660 0.0 101822
21:00+2se11760 0.0 101822
28 february, sun
sun2800:00+2s11820 0.0 101922
03:00+1wsw11830 0.0 101822
06:00+1w11850 0.0 101822
09:00+4w12670 0.0 101991
12:00+8nw44580 0.0 10181046
15:00+7nnw445524 0.0 10181182
18:00+4nne5664100 0.0 1019840
21:00+1n3671100 0.0 1023325
1 march, mon
mon100:00−1n247567 0.0 1025152
03:00−2n227533 0.0 1026116
06:00−2n25720 0.0 1026388
09:00−1n34590 0.0 1027593
12:00+1ne224777 0.0 10261289
15:00+3ne224388 0.0 10241628
18:00+2ne3449100 0.0 1024746
21:00−1nne346751 0.0 102685
2 march, tue
tue200:00−2ne34680 0.0 102798
03:00−2ene348217 0.0 1027165
06:00−2nne348699 0.0 1027253
09:00−1ne357296 0.0 1028532
12:00+2ne6746100 0.0 10271200
15:00+3ne6849100 0.0 10251338
18:00+1nne5859100 0.0 10251024
21:00−2nne347596 0.0 1027121